User: anonymous   Login
Location: Martz Observatory
(42.0083°N, 79.0667°W)
Time: 02:04:23
(UTC-05:00)
Language:

Cosmos 1315 Rocket - Orbit

View from above orbital plane
View from above orbital plane
View from above satellite
View from above satellite

Ground track
Ground track

The orbit data is extracted from the following two-line orbital elements,

1 12904U 81103B   19048.92413154 -.00000171 +00000-0 -13334-4 0  9999
2 12904 081.1774 297.8626 0027780 213.2209 146.7271 15.05619452584495
Epoch (UTC): 17 February 2019 22:10:44
Eccentricity: 0.0027780
inclination: 81.1774°
perigee height: 530 km
apogee height: 569 km
right ascension of ascending node: 297.8626°
argument of perigee: 213.2209°
revolutions per day: 15.05619452
mean anomaly at epoch: 146.7271°
orbit number at epoch: 58449

The dashed part of the orbit path shows where the satellite is in the earth's shadow,  

DLR